THORAD DELTA 1 DEB, 8167

Orbit data source: Space-Track

THORAD DELTA 1 DEB, 8167 is space debris in SSO originally from a launch on Fri, 15 Nov 1974 UTC launched from the Air Force Western Test Range (AFWTR). Debris objects in space refer to the collection of defunct objects orbiting the Earth. Examples of debris include non-operational satellites, rocket bodies, and fragments generated from explosions, collisions, or faulty payload assembly.

Loading next visibility...
Identifier
8167, 1974-089AH
Orbit
SSO
Country
Flag of USUS
Related business
Manufacturer
Unknown
Mission
Spacecraft
Bus & Motor
Unknown
Mass
Unknown
Launch date (UTC)
1974-11-15 (51 years ago)
Launch vehicle
Unknown
Launch site
Air Force Western Test Range (AFWTR)
Object type
Payload
Rocket body
Debris
Shape & HBR
Unknown shape, 0.1 m
Radar Cross Section
Small (<0.1 m²)

Expand to show TLE details & history
Last TLE update: 2 days ago

TLE from 2 days ago
0 THORAD DELTA 1 DEB
1 08167U 74089AH  26070.53553079  .00003918  00000-0  76398-2 0  9998
2 08167 101.3561 280.2008 0121005 137.9871 280.4390 13.34257276414360
Epoch: 2026-03-11T12:51Z
TLE epoch observation values (Epoch: 2026-03-11T12:51:09.860Z)
Latitude
55.4645°
Longitude
-98.66712°
Altitude
1,124.399 km
Speed
7.303 km/s
True Right ascension
17h 33m 17s
True Declination
55° 18' 42"
Sunlit
Object was in daylight at epoch
Visualization orbit readout
Latitude
Unknown
Longitude
Unknown
Altitude
Unknown
Speed
Unknown
Apparent Right ascension
Unknown
Apparent Declination
Unknown
Sunlit
N/A
Visualization observer readout
Local Sidereal Time
12:17:29
Azimuth
Unknown
Elevation
Unknown
Doppler factor
Unknown
Orbital elements
Apogee altitude
1,218.991 km
Perigee altitude
1,037.331 km
Semi-major axis
7,506.298 km
Eccentricity
0.0121
Inclination
101.3561°
RAAN
280.2008°
Arg. of periapsis
137.9871°
True anomaly
279.07172°
Mean anomaly
280.439°
Eccentric anomaly
279.75572°
Mean motion
3.33737 °/min
Orbital period
107.87 mins
BSTAR
0.0076398
Loading maneuver chart data...
Computing Atmospheric mass density...

Documentation

Showing up to 5 results
|